Weather History for Delaware, OH

Change the Weather History Date:

Sunday, October 16, 2011

  Actual Average Record
Temperature  
Mean Temperature 58 °F -  
Max Temperature 71 °F 66 °F 86 °F (1938)
Min Temperature 44 °F 39 °F 25 °F (1937)
Degree Days  
Heating Degree Days 8    
Growing Degree Days 8 (Base 50)    
Moisture  
Dew Point 39 °F    
Average Humidity 56    
Maximum Humidity 77    
Minimum Humidity 35    
Precipitation  
Precipitation 0.00 in - - ()
Sea Level Pressure  
Sea Level Pressure 29.85 in    
Wind  
Wind Speed 8 mph (SW)    
Max Wind Speed 18 mph    
Max Gust Speed 28 mph    
Visibility 10 miles    
Events Rain    
Averages and records for this station are not official NWS values.
T = Trace of Precipitation, MM = Missing Value Source: NWS Daily Summary

Daily Weather History Graph

Daily Weather History Graph

Search for Another Location

Airport:

Trip Planner

Search our weather history database for the weather conditions in past years. The results will help you decide how hot, cold, wet, or windy it might be!

Date:

Astronomy

Oct. 16, 2011 Rise Set
Actual Time 7:43 AM EDT 6:51 PM EDT
Civil Twilight 7:16 AM EDT 7:18 PM EDT
Nautical Twilight 6:44 AM EDT 7:50 PM EDT
Astronomical Twilight 6:13 AM EDT 8:21 PM EDT
Moon 9:35 PM EDT (10/16) 12:00 PM EDT (10/16)
Length of Visible Light 12h 02m
Length of Day
11h 07m
Waning Gibbous, 82% of the Moon is Illuminated
Oct 16
Waning Gibbous
Oct 19
Last Quarter
Oct 26
New
Nov 2
First Quarter
Nov 10
Full

Hourly Weather History & Observations

Time (EDT) Temp. Windchill Dew Point Humidity Pressure Visibility Wind Dir Wind Speed Gust Speed Precip Events Conditions
12:13 AM 46.4 °F 42.9 °F 35.6 °F 66% 29.93 in 10.0 mi SW 6.9 mph - N/A   Clear
12:34 AM 46.4 °F 43.5 °F 35.6 °F 66% 29.94 in 10.0 mi SW 5.8 mph - N/A   Clear
12:53 AM 46.4 °F 43.5 °F 35.6 °F 66% 29.94 in 10.0 mi SW 5.8 mph - N/A   Clear
1:13 AM 46.4 °F 43.5 °F 35.6 °F 66% 29.94 in 10.0 mi SW 5.8 mph - N/A   Clear
1:33 AM 46.4 °F 43.5 °F 35.6 °F 66% 29.95 in 10.0 mi WSW 5.8 mph - N/A   Clear
1:53 AM 46.4 °F 43.5 °F 35.6 °F 66% 29.95 in 10.0 mi WSW 5.8 mph - N/A   Mostly Cloudy
2:14 AM 48.2 °F - 35.6 °F 62% 29.96 in 10.0 mi WSW 4.6 mph - N/A   Mostly Cloudy
2:33 AM 46.4 °F 44.3 °F 35.6 °F 66% 29.97 in 10.0 mi SW 4.6 mph - N/A   Scattered Clouds
2:53 AM 46.4 °F 44.3 °F 35.6 °F 66% 29.97 in 10.0 mi SW 4.6 mph - N/A   Overcast
3:13 AM 46.4 °F 44.3 °F 35.6 °F 66% 29.97 in 10.0 mi SW 4.6 mph - N/A   Scattered Clouds
3:33 AM 46.4 °F 43.5 °F 35.6 °F 66% 29.96 in 10.0 mi SW 5.8 mph - N/A   Clear
3:54 AM 46.4 °F 44.3 °F 35.6 °F 66% 29.96 in 10.0 mi SW 4.6 mph - N/A   Clear
4:13 AM 46.4 °F 45.2 °F 35.6 °F 66% 29.96 in 10.0 mi SSW 3.5 mph - N/A   Clear
4:54 AM 44.6 °F - 37.4 °F 76% 29.96 in 10.0 mi Calm Calm - N/A   Scattered Clouds
5:13 AM 44.6 °F 42.2 °F 35.6 °F 71% 29.96 in 10.0 mi SSW 4.6 mph - N/A   Scattered Clouds
5:33 AM 44.6 °F 43.1 °F 35.6 °F 71% 29.96 in 10.0 mi South 3.5 mph - N/A   Mostly Cloudy
5:53 AM 44.6 °F 43.1 °F 35.6 °F 71% 29.96 in 10.0 mi SSW 3.5 mph - N/A   Overcast
6:13 AM 46.4 °F 44.3 °F 37.4 °F 71% 29.95 in 10.0 mi South 4.6 mph - N/A   Overcast
6:34 AM 46.4 °F 42.4 °F 37.4 °F 71% 29.94 in 10.0 mi South 8.1 mph - N/A   Overcast
6:53 AM 46.4 °F 44.3 °F 37.4 °F 71% 29.94 in 10.0 mi SSW 4.6 mph - N/A   Overcast
7:14 AM 48.2 °F - 37.4 °F 66% 29.93 in 10.0 mi South 6.9 mph - N/A   Overcast
7:33 AM 48.2 °F - 37.4 °F 66% 29.93 in 10.0 mi SSW 9.2 mph - N/A   Overcast
8:14 AM 50.0 °F - 37.4 °F 62% 29.93 in 10.0 mi South 8.1 mph - N/A   Overcast
8:33 AM 51.8 °F - 37.4 °F 58% 29.91 in 10.0 mi South 9.2 mph - N/A   Overcast
8:53 AM 51.8 °F - 37.4 °F 58% 29.91 in 10.0 mi South 9.2 mph - N/A   Mostly Cloudy
9:13 AM 51.8 °F - 37.4 °F 58% 29.91 in 10.0 mi SSW 9.2 mph - N/A   Overcast
9:33 AM 53.6 °F - 37.4 °F 54% 29.89 in 10.0 mi SSW 12.7 mph 17.3 mph N/A   Overcast
9:53 AM 53.6 °F - 37.4 °F 54% 29.88 in 10.0 mi SSW 11.5 mph 16.1 mph N/A   Overcast
10:13 AM 53.6 °F - 37.4 °F 54% 29.89 in 10.0 mi SSW 10.4 mph - N/A   Overcast
10:34 AM 55.4 °F - 37.4 °F 51% 29.88 in 10.0 mi SSW 12.7 mph 19.6 mph N/A   Overcast
10:53 AM 55.4 °F - 37.4 °F 51% 29.87 in 10.0 mi SSW 13.8 mph 19.6 mph N/A   Overcast
11:13 AM 57.2 °F - 37.4 °F 48% 29.86 in 10.0 mi SSW 11.5 mph 18.4 mph N/A   Overcast
11:34 AM 59.0 °F - 37.4 °F 45% 29.85 in 10.0 mi SSW 11.5 mph 17.3 mph N/A   Overcast
11:53 AM 59.0 °F - 37.4 °F 45% 29.85 in 10.0 mi SW 11.5 mph 19.6 mph N/A   Overcast
12:13 PM 60.8 °F - 37.4 °F 42% 29.83 in 10.0 mi SSW 12.7 mph 16.1 mph N/A   Mostly Cloudy
12:33 PM 60.8 °F - 39.2 °F 45% 29.82 in 10.0 mi SW 12.7 mph 18.4 mph N/A   Mostly Cloudy
12:54 PM 64.4 °F - 39.2 °F 40% 29.81 in 10.0 mi SW 15.0 mph 18.4 mph N/A   Mostly Cloudy
1:33 PM 62.6 °F - 39.2 °F 42% 29.78 in 10.0 mi WSW 12.7 mph 18.4 mph N/A   Overcast
1:53 PM 68.0 °F - 41.0 °F 37% 29.76 in 10.0 mi SW 18.4 mph 21.9 mph N/A   Scattered Clouds
2:13 PM 69.8 °F - 41.0 °F 35% 29.73 in 10.0 mi SW 13.8 mph 20.7 mph N/A   Clear
2:34 PM 69.8 °F - 41.0 °F 35% 29.73 in 10.0 mi West 13.8 mph 25.3 mph N/A   Clear
2:53 PM 69.8 °F - 41.0 °F 35% 29.74 in 10.0 mi WSW 16.1 mph 27.6 mph N/A   Clear
3:13 PM 69.8 °F - 42.8 °F 38% 29.71 in 10.0 mi SW 15.0 mph 23.0 mph N/A   Scattered Clouds
3:34 PM 69.8 °F - 42.8 °F 38% 29.71 in 10.0 mi SW 15.0 mph 23.0 mph N/A   Scattered Clouds
3:53 PM 69.8 °F - 42.8 °F 38% 29.69 in 10.0 mi SW 9.2 mph - N/A   Scattered Clouds
4:14 PM 71.6 °F - 44.6 °F 38% 29.70 in 10.0 mi WSW 15.0 mph 20.7 mph N/A   Scattered Clouds
4:33 PM 71.6 °F - 44.6 °F 38% 29.69 in 10.0 mi WSW 10.4 mph 19.6 mph N/A   Scattered Clouds
4:53 PM 69.8 °F - 44.6 °F 40% 29.70 in 10.0 mi West 11.5 mph 21.9 mph N/A   Mostly Cloudy
5:13 PM 69.8 °F - 44.6 °F 40% 29.71 in 10.0 mi West 13.8 mph 21.9 mph N/A   Mostly Cloudy
5:34 PM 68.0 °F - 46.4 °F 46% 29.71 in 10.0 mi WNW 11.5 mph 19.6 mph N/A Rain Light Rain
5:53 PM 64.4 °F - 46.4 °F 52% 29.68 in 10.0 mi WNW 8.1 mph - N/A   Light Drizzle
6:14 PM 64.4 °F - 46.4 °F 52% 29.72 in 10.0 mi WNW 12.7 mph 18.4 mph N/A   Overcast
6:33 PM 62.6 °F - 48.2 °F 59% 29.71 in 10.0 mi WNW 9.2 mph - N/A   Light Drizzle
6:53 PM 62.6 °F - 48.2 °F 59% 29.73 in 10.0 mi NW 8.1 mph - N/A   Light Drizzle
7:14 PM 60.8 °F - 50.0 °F 68% 29.74 in 10.0 mi NW 13.8 mph 20.7 mph N/A Rain Light Rain
7:33 PM 55.4 °F - 48.2 °F 77% 29.76 in 10.0 mi NW 9.2 mph 18.4 mph N/A   Scattered Clouds
7:53 PM 55.4 °F - 46.4 °F 72% 29.78 in 10.0 mi NW 11.5 mph 17.3 mph N/A   Mostly Cloudy
8:13 PM 55.4 °F - 46.4 °F 72% 29.78 in 10.0 mi WNW 8.1 mph - N/A   Overcast
8:33 PM 55.4 °F - 46.4 °F 72% 29.78 in 10.0 mi WNW 8.1 mph - N/A   Overcast
8:53 PM 55.4 °F - 46.4 °F 72% 29.79 in 10.0 mi NW 9.2 mph - N/A   Overcast
9:13 PM 55.4 °F - 44.6 °F 67% 29.80 in 10.0 mi NW 12.7 mph 21.9 mph N/A   Overcast
9:34 PM 55.4 °F - 41.0 °F 58% 29.81 in 10.0 mi NW 11.5 mph 17.3 mph N/A   Overcast
9:53 PM 55.4 °F - 37.4 °F 51% 29.81 in 10.0 mi NW 16.1 mph 25.3 mph N/A   Overcast
10:13 PM 55.4 °F - 37.4 °F 51% 29.82 in 10.0 mi NW 12.7 mph 17.3 mph N/A   Overcast
10:33 PM 53.6 °F - 37.4 °F 54% 29.83 in 10.0 mi NW 9.2 mph - N/A   Overcast
11:14 PM 53.6 °F - 37.4 °F 54% 29.84 in 10.0 mi NW 10.4 mph 18.4 mph N/A   Mostly Cloudy
11:33 PM 51.8 °F - 37.4 °F 58% 29.84 in 10.0 mi WNW 6.9 mph - N/A   Clear
11:53 PM 51.8 °F - 37.4 °F 58% 29.84 in 10.0 mi West 4.6 mph - N/A   Scattered Clouds